(287499) = 2003 BJ38 = 2008 WB140

Discovered at Anderson Mesa on 2003-01-27 by LONEOS.

Orbit

Orbit type: Main Belt

Note: WebGL enabled browser required.

epoch2023-09-13.0
epoch JD2460200.5
perihelion date2019-08-24.24015
perihelion JD2458719.74015
argument of perihelion (°)157.75396
ascending node (°)316.09003
inclination (°)8.84831
eccentricity0.0851288
perihelion distance (AU)2.8843079
Tisserand w.r.t. Jupiter3.2
ΔV w.r.t. Earth (km/sec)10.9
semimajor axis (AU)3.1526928
mean anomaly (°)260.71499
mean daily motion (°/day)0.17606840
aphelion distance (AU)3.421
period (years)5.6
P-vector [x]-0.40737248
P-vector [y]0.81303250
P-vector [z]0.41596373
Q-vector [x]-0.90701022
Q-vector [y]-0.30697785
Q-vector [z]-0.28826561
absolute magnitude15.73
phase slope0.15
uncertainty0
referenceMPO 779065
observations used380
oppositions15
arc length (days)7595
first opposition used2003
last opposition used2023
residual rms (arc-secs)0.76
perturbers coarse indicatorM-v
perturbers precise indicator003Ek
first observation date used2003-01-27.0
last observation date used2023-11-13.0
computer nameMPCLINUX
JD of orbit computation2456760.858726
perihelion JD uncertainty (days)2.9027E-04
argument of perihelion uncertainty (°)7.2348E-05
ascending node uncertainty (°)4.2199E-05
inclination uncertainty (°)9.1319E-06
eccentricity uncertainty 9.3905E-08
perihelion distance uncertainty (AU)3.1494E-07
Minimum Orbit Intersection Distances (in AU)
for orbit epoch: 2460200.5, reference: E2023-VO2
Mercury2.56158
Venus2.16585
Earth1.90141
Mars1.24438
Jupiter1.65971
Saturn6.18257
Uranus15.4664
Neptune26.657

Observations

389 total observations over interval: 2003 01 27.19227 – 2023 11 13.295965
These data are available for download (format description).

Date (UT) J2000 RA J2000 Dec Magn Location Ref
2003 01 27.19227 08 43 32.02 +20 17 58.7 19.1 R 699 – Lowell Observatory-LONEOS MPS 71928
2003 01 27.21018 08 43 31.00 +20 17 58.3   699 – Lowell Observatory-LONEOS MPS 71928
2003 01 27.29724 08 43 26.04 +20 18 01.6   699 – Lowell Observatory-LONEOS MPS 71928
2003 01 27.31516 08 43 25.09 +20 18 03.6   699 – Lowell Observatory-LONEOS MPS 71928
2003 01 30.25113 08 40 41.49 +20 19 22.7 19.4   644 – Palomar Mountain/NEAT MPS 71928
2003 01 30.33195 08 40 36.84 +20 19 24.6 19.3   644 – Palomar Mountain/NEAT MPS 71928
2003 01 30.40896 08 40 32.44 +20 19 25.8 19.6   644 – Palomar Mountain/NEAT MPS 71928
2003 01 31.32597 08 39 41.51 +20 19 48.4 19.3   704 – Lincoln Laboratory ETS, New Mexico MPS 71928
2003 01 31.33996 08 39 40.73 +20 19 46.7 20.0   704 – Lincoln Laboratory ETS, New Mexico MPS 71928
2003 01 31.35393 08 39 39.93 +20 19 48.8 20.1   704 – Lincoln Laboratory ETS, New Mexico MPS 71928
2003 01 31.36793 08 39 39.15 +20 19 48.5 19.6   704 – Lincoln Laboratory ETS, New Mexico MPS 71928
2003 01 31.38195 08 39 38.40 +20 19 48.9 20.0   704 – Lincoln Laboratory ETS, New Mexico MPS 71928
2003 02 03.22432 08 37 01.74 +20 20 36.3 18.9   704 – Lincoln Laboratory ETS, New Mexico MPS 71928
2003 02 03.23984 08 37 00.80 +20 20 36.1 19.7   704 – Lincoln Laboratory ETS, New Mexico MPS 71928
2003 02 03.25544 08 37 00.05 +20 20 36.6 19.3   704 – Lincoln Laboratory ETS, New Mexico MPS 71928
2003 02 03.27092 08 36 59.13 +20 20 38.4 19.1   704 – Lincoln Laboratory ETS, New Mexico MPS 71928
2004 04 22.56670 14 00 49.23 -25 51 31.4 18.8 R E12 – Siding Spring Survey MPS 312305
2004 04 22.58272 14 00 48.46 -25 51 29.0 19.4 R E12 – Siding Spring Survey MPS 312305
2004 04 22.59870 14 00 47.58 -25 51 26.4 20.4 R E12 – Siding Spring Survey MPS 312305
2004 04 22.61469 14 00 46.73 -25 51 22.9 19.7 R E12 – Siding Spring Survey MPS 312305
2008 01 01.25625 04 11 41.17 +32 03 23.5 20.3 V G96 – Mt. Lemmon Survey MPS 312305
2008 01 01.26410 04 11 40.88 +32 03 21.2 19.9 V G96 – Mt. Lemmon Survey MPS 312305
2008 01 01.27201 04 11 40.63 +32 03 18.9 19.8 V G96 – Mt. Lemmon Survey MPS 312305
2008 01 01.27986 04 11 40.38 +32 03 16.4 20.4 V G96 – Mt. Lemmon Survey MPS 312305
2008 02 09.26215 04 12 07.04 +29 21 35.7   291 – LPL/Spacewatch II MPS 312305
2008 02 09.28626 04 12 07.74 +29 21 31.9   291 – LPL/Spacewatch II MPS 312305
2008 02 09.29973 04 12 08.17 +29 21 29.6   291 – LPL/Spacewatch II MPS 312305
2008 11 24.48914 11 02 46.24 +04 34 03.9 20.6 V G96 – Mt. Lemmon Survey MPS 312645
2008 11 24.49798 11 02 46.75 +04 33 59.4 21.1 V G96 – Mt. Lemmon Survey MPS 312645
2008 11 24.50674 11 02 47.22 +04 33 54.9 21.0 V G96 – Mt. Lemmon Survey MPS 312645
2008 11 24.51558 11 02 47.65 +04 33 50.5 20.7 V G96 – Mt. Lemmon Survey MPS 312645
2009 01 03.48721 11 26 08.41 +00 07 38.3 21.0 V G96 – Mt. Lemmon Survey MPS 312645
2009 01 03.49576 11 26 08.48 +00 07 35.7 21.2 V G96 – Mt. Lemmon Survey MPS 312645
2009 01 03.50432 11 26 08.59 +00 07 33.7 21.3 V G96 – Mt. Lemmon Survey MPS 312645
2009 01 03.51286 11 26 08.66 +00 07 30.7 21.1 V G96 – Mt. Lemmon Survey MPS 312645
2009 02 03.42409 11 21 53.42 -01 22 53.2 20.2 V G96 – Mt. Lemmon Survey MPS 312645
2009 02 03.42897 11 21 53.24 -01 22 53.5 20.2 V G96 – Mt. Lemmon Survey MPS 312645
2009 02 03.43378 11 21 53.10 -01 22 53.8 20.2 V G96 – Mt. Lemmon Survey MPS 312645
2009 02 03.43855 11 21 52.95 -01 22 54.0 20.2 V G96 – Mt. Lemmon Survey MPS 312645
2009 02 19.28270 11 11 55.96 -01 19 07.4 19.7 V 703 – Catalina Sky Survey MPS 312645
2009 02 19.29079 11 11 55.60 -01 19 05.6 20.3 V 703 – Catalina Sky Survey MPS 312645
2009 02 19.29889 11 11 55.24 -01 19 05.8 19.8 V 703 – Catalina Sky Survey MPS 312645
2009 02 19.30684 11 11 54.92 -01 19 05.7 20.0 V 703 – Catalina Sky Survey MPS 312645
2009 02 27.27805 11 05 38.13 -01 05 44.9 20.2   704 – Lincoln Laboratory ETS, New Mexico MPS 312645
2009 02 27.28966 11 05 37.46 -01 05 43.5 19.6   704 – Lincoln Laboratory ETS, New Mexico MPS 312645
2009 02 27.31291 11 05 36.37 -01 05 41.0 19.8   704 – Lincoln Laboratory ETS, New Mexico MPS 312645
2009 03 01.35536 11 03 55.51 -01 01 17.7 19.4 V G96 – Mt. Lemmon Survey MPS 312645
2009 03 01.36220 11 03 55.15 -01 01 16.6 19.4 V G96 – Mt. Lemmon Survey MPS 312645
2009 03 01.36907 11 03 54.82 -01 01 15.8 19.1 V G96 – Mt. Lemmon Survey MPS 312645
2009 03 01.37595 11 03 54.46 -01 01 15.2 19.2 V G96 – Mt. Lemmon Survey MPS 312645
2009 03 25.25852 10 45 19.54 +00 04 02.5 20.0 V G96 – Mt. Lemmon Survey MPS 312645
2009 03 25.26521 10 45 19.29 +00 04 03.8 20.1 V G96 – Mt. Lemmon Survey MPS 312645
2009 03 25.30469 10 45 17.67 +00 04 10.2 19.9 V G96 – Mt. Lemmon Survey MPS 312645
2009 03 25.31147 10 45 17.38 +00 04 11.3 19.8 V G96 – Mt. Lemmon Survey MPS 312645
2010 02 27.898756 16 27 40.72 -31 03 13.7   C51 – WISE MPS 334814
2010 02 28.031060 16 27 46.72 -31 03 45.9   C51 – WISE MPS 334814
2010 02 28.031188 16 27 46.81 -31 03 44.3   C51 – WISE MPS 334814
2010 02 28.163491 16 27 52.76 -31 04 16.7   C51 – WISE MPS 334814
2010 02 28.49432 16 28 07.67 -31 05 37.7   C51 – WISE MPS 334815
2010 02 28.560403 16 28 10.59 -31 05 50.9   C51 – WISE MPS 371961
2010 02 28.626619 16 28 13.57 -31 06 07.0   C51 – WISE MPS 334815
2010 02 28.758924 16 28 19.55 -31 06 38.6   C51 – WISE MPS 334815
2010 02 28.891227 16 28 25.34 -31 07 10.0   C51 – WISE MPS 334815
2010 03 01.023659 16 28 31.21 -31 07 41.7   C51 – WISE MPS 334815
2011 08 01.42828 21 03 20.951 -17 50 37.13 20.7 g F51 – Pan-STARRS 1, Haleakala MPS 388378
2011 08 01.44037 21 03 20.336 -17 50 38.04 20.8 g F51 – Pan-STARRS 1, Haleakala MPS 388378
2011 08 05.08191 21 00 20.63 -17 55 53.2 20.6 R J04 – ESA Optical Ground Station, Tenerife MPS 387981
2011 08 05.10332 21 00 19.57 -17 55 54.7 20.6 R J04 – ESA Optical Ground Station, Tenerife MPS 387981
2011 08 05.12473 21 00 18.44 -17 55 56.9 20.5 R J04 – ESA Optical Ground Station, Tenerife MPS 387981
2012 09 26.523783 01 16 13.676 +20 09 08.32 20.6 r F51 – Pan-STARRS 1, Haleakala MPS 434045
2012 09 26.534818 01 16 13.177 +20 09 07.55 20.5 r F51 – Pan-STARRS 1, Haleakala MPS 434045
2012 10 10.15802 01 05 34.71 +19 36 31.9 19.5 R 926 – Tenagra II Observatory, Nogales MPS 437766
2012 10 10.16956 01 05 34.09 +19 36 28.7 19.4 R 926 – Tenagra II Observatory, Nogales MPS 437766
2012 10 10.18342 01 05 33.42 +19 36 25.7 19.4 R 926 – Tenagra II Observatory, Nogales MPS 437766
2012 10 10.20089 01 05 32.53 +19 36 23.0 20.1 V G96 – Mt. Lemmon Survey MPS 437766
2012 10 10.20772 01 05 32.20 +19 36 21.4 19.9 V G96 – Mt. Lemmon Survey MPS 437766
2012 10 10.21456 01 05 31.84 +19 36 20.3 20.0 V G96 – Mt. Lemmon Survey MPS 437766
2012 10 10.22140 01 05 31.48 +19 36 18.8 20.1 V G96 – Mt. Lemmon Survey MPS 437766
2012 11 01.418768 00 48 39.076 +18 01 24.90 20.2 i F51 – Pan-STARRS 1, Haleakala MPS 441504
2012 11 01.430893 00 48 38.582 +18 01 21.24 20.0 i F51 – Pan-STARRS 1, Haleakala MPS 441504
2012 11 03.410980 00 47 24.584 +17 51 52.83 20.2 i F51 – Pan-STARRS 1, Haleakala MPS 441504
2012 11 03.423009 00 47 24.137 +17 51 49.42 20.0 i F51 – Pan-STARRS 1, Haleakala MPS 441504
2012 11 14.88710 00 41 41.16 +16 58 50.5 20.7   J43 – Oukaimeden Observatory, Marrakech MPS 444772
2012 11 14.90051 00 41 40.87 +16 58 46.4 20.8   J43 – Oukaimeden Observatory, Marrakech MPS 444772
2012 11 14.91380 00 41 40.55 +16 58 43.1 20.8   J43 – Oukaimeden Observatory, Marrakech MPS 444772
2012 11 14.92700 00 41 40.26 +16 58 38.9 21.3   J43 – Oukaimeden Observatory, Marrakech MPS 444772
2013 12 26.29079 07 51 43.42 +27 20 06.0 19.9 V 691 – Steward Observatory, Kitt Peak-Spacewatch MPS 493289
2013 12 26.30858 07 51 42.53 +27 20 06.3 19.8 V 691 – Steward Observatory, Kitt Peak-Spacewatch MPS 493289
2013 12 26.32637 07 51 41.62 +27 20 06.9 19.9 V 691 – Steward Observatory, Kitt Peak-Spacewatch MPS 493289
2014 01 03.22984 07 44 47.85 +27 22 04.7   691 – Steward Observatory, Kitt Peak-Spacewatch MPS 495116
2014 01 03.24758 07 44 46.85 +27 22 04.9   691 – Steward Observatory, Kitt Peak-Spacewatch MPS 495116
2014 01 03.26533 07 44 45.83 +27 22 05.0   691 – Steward Observatory, Kitt Peak-Spacewatch MPS 495116
2014 01 06.49197 07 41 43.445 +27 21 55.93 19.8 g F51 – Pan-STARRS 1, Haleakala MPS 496461
